Location: Newark
(36.1358°N, 115.1208°W)
Time: 02:05:13
(UTC+00:00)

Tiangong - Visible Passes

Search period start: 21 September 2021 00:00
Search period end: 01 October 2021 00:00
Orbit: 380 x 385 km, 41.5° (Epoch: 20 September)

Date Brightness Start Highest point End Pass type
(mag) Time Alt. Az. Time Alt. Az. Time Alt. Az.
23 Sep 2.8 13:00:08 10° SSW 13:02:55 29° SSE 13:05:43 10° E visible
24 Sep 3.5 12:01:35 13° S 12:02:54 16° SE 12:04:55 10° ESE visible
25 Sep 1.6 12:36:51 15° SW 12:39:15 54° SSE 12:42:21 10° ENE visible
26 Sep 3.0 11:39:50 26° ESE 11:39:50 26° ESE 11:41:57 10° E visible
27 Sep 0.9 12:14:55 49° WSW 12:15:39 84° NNW 12:18:50 10° ENE visible
28 Sep 4.1 11:17:46 17° ENE 11:17:46 17° ENE 11:18:36 10° ENE visible
28 Sep 2.0 12:49:57 14° WNW 12:52:24 37° NNW 12:55:24 10° ENE visible
29 Sep 2.0 11:52:45 43° NNE 11:52:45 43° NNE 11:55:16 10° ENE visible
30 Sep 2.3 12:27:43 22° NW 12:29:02 31° N 12:31:54 10° ENE visible
